Weather History for KDET - November, 2013

Change the Weather History Date:

Monday, November 18, 2013

  Actual Average Record
Temperature  
Mean Temperature 42 °F -  
Max Temperature 48 °F 49 °F 69 °F (1975)
Min Temperature 35 °F 35 °F 12 °F (1959)
Degree Days  
Heating Degree Days 24    
Moisture  
Dew Point 29 °F    
Average Humidity 58    
Maximum Humidity 63    
Minimum Humidity 51    
Precipitation  
Precipitation 0.00 in - - ()
Sea Level Pressure  
Sea Level Pressure 29.85 in    
Wind  
Wind Speed 17 mph (West)    
Max Wind Speed 26 mph    
Max Gust Speed 38 mph    
Visibility 10 miles    
Events      
Averages and records for this station are not official NWS values.
T = Trace of Precipitation, MM = Missing Value Source: NWS Daily Summary

Daily Weather History Graph

Daily Weather History Graph

Search for Another Location

Airport or City:

Trip Planner

Search our weather history database for the weather conditions in past years. The results will help you decide how hot, cold, wet, or windy it might be!

Date:

Astronomy

Nov. 18, 2013 Rise Set
Actual Time 7:26 AM EST 5:07 PM EST
Civil Twilight 6:56 AM EST 5:37 PM EST
Nautical Twilight 6:22 AM EST 6:11 PM EST
Astronomical Twilight 5:48 AM EST 6:45 PM EST
Moon 6:08 PM EST (11/18) 8:14 AM EST (11/18)
Length of Visible Light 10h 41m
Length of Day
9h 40m
Full, 99% of the Moon is Illuminated
Nov 18
Full
Nov 25
Last Quarter
Dec 2
New
Dec 9
First Quarter
Dec 17
Full

Hourly Weather History & Observations

Time (EST) Temp. Windchill Dew Point Humidity Pressure Visibility Wind Dir Wind Speed Gust Speed Precip Events Conditions
1:53 AM 48.0 °F - 36.0 °F 63% 29.54 in 10.0 mi West 15.0 mph 33.4 mph 0.00 in   Unknown
2:53 AM 48.0 °F - 34.0 °F 58% 29.58 in 10.0 mi West 17.3 mph 26.5 mph N/A   Overcast
3:53 AM 46.9 °F - 33.1 °F 59% 29.60 in 10.0 mi West 16.1 mph 26.5 mph N/A   Mostly Cloudy
4:53 AM 46.0 °F 39.3 °F 34.0 °F 63% 29.63 in 10.0 mi West 16.1 mph 28.8 mph N/A   Overcast
5:53 AM 45.0 °F 37.6 °F 32.0 °F 60% 29.65 in 10.0 mi West 17.3 mph 26.5 mph N/A   Overcast
6:53 AM 45.0 °F 38.5 °F 32.0 °F 60% 29.67 in 10.0 mi West 13.8 mph 26.5 mph N/A   Mostly Cloudy
7:53 AM 45.0 °F 37.9 °F 32.0 °F 60% 29.68 in 10.0 mi West 16.1 mph 29.9 mph N/A   Overcast
8:53 AM 45.0 °F 37.6 °F 32.0 °F 60% 29.70 in 10.0 mi WSW 17.3 mph 28.8 mph N/A   Partly Cloudy
9:53 AM 45.0 °F 36.9 °F 30.0 °F 56% 29.72 in 10.0 mi West 20.7 mph 38.0 mph N/A   Overcast
10:53 AM 45.0 °F 37.6 °F 30.0 °F 56% 29.74 in 10.0 mi West 17.3 mph 29.9 mph N/A   Overcast
11:53 AM 44.1 °F 34.6 °F 27.0 °F 51% 29.76 in 10.0 mi West 26.5 mph 38.0 mph N/A   Overcast
5:53 PM - - - N/A% 29.98 in - North - - N/A   Unknown
6:08 PM - - - N/A% 29.99 in - North - - N/A   Overcast
6:10 PM 37.4 °F 27.2 °F 23.0 °F 56% 29.99 in 10.0 mi NW 19.6 mph 27.6 mph N/A   Overcast
6:53 PM 37.4 °F 27.2 °F 23.0 °F 56% 30.03 in 10.0 mi NW 19.6 mph 27.6 mph N/A   Overcast
7:53 PM 37.4 °F 27.2 °F 23.0 °F 56% 30.05 in 10.0 mi NW 19.6 mph 27.6 mph N/A   Overcast
8:53 PM 35.6 °F 25.9 °F 21.2 °F 56% 30.07 in 10.0 mi WNW 16.1 mph 24.2 mph N/A   Overcast
9:53 PM - - - N/A% 30.08 in - North - - N/A   Unknown
10:03 PM 35.6 °F 26.2 °F 23.0 °F 60% 30.08 in 10.0 mi WNW 15.0 mph 24.2 mph N/A   Overcast
10:53 PM 35.6 °F 26.2 °F 23.0 °F 60% 30.10 in 10.0 mi WNW 15.0 mph 24.2 mph N/A   Overcast
11:53 PM - - - N/A% 30.11 in - North - - N/A   Unknown